Location: Boiro
(42.6475°N, 8.8834°W)
Time: 23:09:18
(UTC+01:00)

Altair - Pass Details

Date: 02 December 2021
Orbit: 1501 x 1683 km, 47.2° (Epoch: 18 January)

Event Time Altitude Azimuth Distance (km) Brightness Sun altitude
Rises 15:02:45 0° 183° (S) 4,812 11.3 21.5°
Reaches altitude 10° 15:07:07 10° 166° (SSE) 3,797 10.5 21.2°
Maximum altitude 15:13:11 19° 126° (SE) 3,106 9.4 20.7°
Drops below altitude 10° 15:19:07 10° 86° (E) 3,718 9.3 20.2°
Sets 15:23:17 0° 70° (ENE) 4,678 9.6 19.8°
